Location: Palomar Mountain Lodge
(33.3110°N, 116.8495°W)
Time: 19:59:10
(UTC-08:00)

Daily predictions for brighter satellites

Satellite Brightness Start Highest point End
(mag) Time Altitude Azimuth Time Altitude Azimuth Time Altitude Azimuth
Cosmos 2227 Rocket 2.5 16:57:56 10° N 17:03:17 42° ENE 17:08:36 10° SE
Cosmos 1697 Rocket 3.8 17:01:02 10° SW 17:06:19 43° WNW 17:11:38 10° N
Cosmos-2242 4.0 17:03:23 10° SE 17:06:51 25° E 17:10:20 10° NE
Hubble Space Telescope 1.7 17:05:16 10° WSW 17:08:46 37° S 17:12:17 10° ESE
USA 308 3.8 17:09:36 10° SSE 17:11:20 16° ESE 17:13:30 10° ENE
UNK 4.1 17:08:58 10° N 17:13:30 67° WNW 17:17:58 10° SSW
Cosmos 2151 3.6 17:10:06 10° NNW 17:14:11 59° W 17:18:16 10° S
Cosmos 1655 Rocket 4.3 17:08:57 10° N 17:14:52 45° E 17:20:45 10° SSE
Cosmos 1726 Rocket 3.7 17:10:50 10° S 17:15:28 88° E 17:20:05 10° N
Cosmos 2333 Rocket 4.1 17:15:17 10° ESE 17:15:57 10° E 17:16:38 10° E
Thor Agena Rocket 3.6 17:13:31 10° SSE 17:18:43 89° WSW 17:23:54 10° NNW
ATLAS CENTAUR R/B 4.3 17:19:28 10° WNW 17:21:06 14° WSW 17:22:42 10° SW
AQUARIUS 4.5 17:17:10 10° SE 17:21:18 41° ENE 17:25:26 10° N
MOS 1 Rocket 3.7 17:16:52 10° SE 17:21:28 45° ENE 17:26:20 10° N
Cosmos 2084 Rocket 3.6 17:18:56 10° NW 17:23:07 76° WSW 17:27:17 10° SSE
IRS-P3 4.4 17:20:04 10° SE 17:25:02 43° ENE 17:30:01 10° N
Okean 1 3.8 17:22:24 10° SSE 17:25:37 31° E 17:28:50 10° NNE
YAOGAN 1 4.0 17:24:04 10° ESE 17:26:44 16° ENE 17:29:24 10° NNE
SMAP 3.1 17:22:45 10° SSE 17:27:23 85° WSW 17:32:04 10° NNW
Cosmos 1898 Rocket 3.4 17:25:28 10° S 17:30:34 77° ESE 17:35:44 10° NNE
Landsat 7 3.7 17:26:47 10° SSE 17:31:25 81° ENE 17:36:04 10° N
Cosmos 372 Rocket 4.1 17:26:21 10° SSW 17:31:30 82° WNW 17:36:38 10° NNE
ERS-1 4.4 17:27:44 10° SSE 17:32:39 61° ENE 17:37:32 10° N
BREEZE-M DEB (TANK) 3.9 17:24:07 10° SW 17:37:32 83° SE 17:41:35 15° NE
SJ-6F 4.3 17:36:05 10° SSE 17:39:57 57° ENE 17:43:53 10° N
Helios 1A Rocket 3.7 17:39:24 19° ENE 17:40:23 22° E 17:43:04 10° SSE
Cosmos 1937 Rocket 3.4 17:40:24 10° S 17:45:33 76° ESE 17:50:43 10° NNE
SAR-Lupe-4 3.8 17:43:11 10° S 17:46:42 69° WSW 17:50:14 10° NNW
USA 59 Rocket 1.3 17:43:58 10° SSE 17:47:05 18° ESE 17:47:49 18° ESE
SKYMED 2 3.5 17:43:13 10° NNE 17:47:33 76° ESE 17:51:53 10° S
PSLV R/B 4.5 17:44:36 10° ESE 17:51:07 - NNE 17:47:40 22° ENE
CZ-4C R/B 3.6 17:42:10 10° NW 17:49:56 68° WSW 17:58:57 10° SSE
Atlas Centaur 2 3.3 17:48:50 10° S 17:50:29 13° SSE 17:52:00 11° SE
Cosmos 2082 4.3 17:46:58 10° N 17:52:02 32° ENE 17:57:05 10° SE
Cosmos 1553 Rocket 3.9 17:48:17 10° S 17:54:18 64° E 18:00:28 10° NNE
SL-24 R/B - RUBIN 2 4.0 17:48:54 10° SSW 17:54:37 87° WNW 17:58:54 15° NNE
Cosmos 2237 4.2 17:50:18 10° SSW 17:55:58 73° ESE 18:01:13 12° NNE
SL-16 R/B 2.7 17:50:52 10° S 17:56:00 38° ESE 17:58:55 22° NE
CZ-2D R/B 4.0 17:53:15 10° S 17:56:13 42° W 17:59:12 10° NNW
Cosmos 1953 Rocket 3.7 17:52:26 10° N 17:56:53 76° W 18:01:17 10° S
Sakura Rocket 3.7 17:57:26 10° WSW 18:02:05 46° S 18:04:13 23° ESE
COSMO-SKYMED 1 2.3 18:00:47 13° NNE 18:04:28 76° ESE 18:08:33 10° S
OAO 1 Rocket 4.4 18:02:41 10° WSW 18:07:58 89° NNW 18:10:23 33° ENE
Meteor 2-2 Rocket 4.5 18:02:33 10° SSW 18:08:11 71° W 18:13:47 10° N
ARIANE 5 R/B 3.7 18:04:40 10° S 18:09:26 43° W 18:14:18 10° NNW
COSMOS 2455 2.8 18:03:51 10° SSW 18:09:51 88° ESE 18:14:27 18° NNE
Cosmos 1812 Rocket 4.0 18:06:03 10° SSE 18:09:50 36° E 18:09:50 36° E
Cosmos 1980 Rocket 4.0 18:06:11 10° WSW 18:11:00 28° WNW 18:15:48 10° N
NOSS 3-1 (C) 3.8 18:11:07 10° S 18:14:17 26° SE 18:14:17 26° SE
Cosmos 2221 2.7 18:12:54 10° SSE 18:16:40 44° ESE 18:16:40 44° ESE
Cosmos 1745 Rocket 4.4 18:13:31 10° NNE 18:19:07 36° ENE 18:24:41 10° SE
Cosmos 2219 3.1 18:13:48 10° NNW 18:19:32 71° ENE 18:25:15 10° SSE
NOAA 6 4.2 18:15:20 10° SE 18:20:11 46° ENE 18:25:02 10° N
NOAA 15 4.5 18:15:44 10° SSE 18:21:00 79° ENE 18:26:18 10° N
Cosmos 2278 3.7 18:16:19 10° S 18:21:51 57° ESE 18:23:49 38° NE
SL-19 R/B 4.1 18:18:48 10° SSE 18:24:02 63° ENE 18:29:34 10° N
NOSS 2-1 (C) 4.1 18:20:36 10° S 18:24:27 38° SE 18:24:27 38° SE
Cosmos 1244 Rocket 4.4 18:18:53 10° N 18:25:08 86° W 18:31:17 10° S
Cosmos 2263 Rocket 2.6 18:20:53 10° NNW 18:26:29 64° WSW 18:32:04 10° S
Cosmos 1417 Rocket 4.3 18:26:44 10° S 18:32:53 72° E 18:37:21 19° NNE
SPOT 1/Viking Rocket 4.2 18:29:38 10° S 18:34:42 55° W 18:39:48 10° NNW
USA 308 3.6 18:32:05 10° WSW 18:34:43 35° NW 18:34:43 35° NW
SL-08 R/B 4.5 18:29:22 10° N 18:35:44 85° W 18:42:02 10° S
OceanSat 1 rocket 4.4 18:32:01 10° SSE 18:36:45 77° ENE 18:41:28 10° N
BREEZE-M DEB (TANK) 4.2 18:28:26 10° WSW 18:37:11 51° NW 18:38:37 37° N
SJ-7 4.5 18:35:01 10° S 18:38:40 64° WSW 18:39:53 38° NW
Cosmos 1386 Rocket 4.3 18:33:11 10° N 18:39:19 74° E 18:45:33 10° S
Skynet4D Del rocket 4.4 18:36:45 10° WSW 18:42:13 46° S 18:43:45 38° SE
Cosmos 2360 Rocket 2.7 18:37:47 10° S 18:42:09 42° SE 18:42:09 42° SE
Resurs 1-3 4.1 18:40:18 10° S 18:44:30 57° W 18:48:44 10° NNW
Hubble Space Telescope 2.1 18:44:54 10° WSW 18:47:42 32° SSW 18:47:42 32° SSW
Cosmos 2219 Rocket 4.1 18:52:57 10° SSE 18:54:11 16° SSE 18:54:11 16° SSE
Cosmos 2333 Rocket 2.2 18:53:41 10° SSW 18:59:24 80° WNW 18:59:58 71° N
YAOGAN 1 4.2 18:58:27 10° SSW 19:02:16 33° W 19:06:06 10° NNW
Cosmos 2322 Rocket 2.4 19:03:31 10° SSW 19:08:21 66° SSW 19:08:21 66° SSW
Cosmos 2285 Rocket 4.0 19:10:20 10° SSW 19:16:34 73° WNW 19:16:44 72° WNW
Cosmos 2315 Rocket 4.5 19:25:35 10° SSW 19:31:44 58° W 19:31:44 58° W
USA 59 Rocket 2.8 19:32:36 10° WSW 19:33:31 14° W 19:33:31 14° W
SL-16 R/B 4.0 19:35:32 10° WSW 19:40:06 25° WNW 19:40:49 24° NW
Centaur D-1A AC-31 4.4 20:06:58 10° WNW 20:44:21 34° SW 20:45:50 33° SSW
